User: anonymous   Login
Location: Strawberry
(45.6646°N, 111.9596°W)
Time: 10:05:32
(UTC+00:00)
Language:

METEOR M2 - Orbit

View from above orbital plane
View from above orbital plane
View from above satellite
View from above satellite

Ground track
Ground track

The orbit data is extracted from the following two-line orbital elements,

1 40069U 14037A   22333.75617157 -.00000002  00000-0  18263-4 0  9993
2 40069  98.4270 343.9848 0005371 191.0659 169.0391 14.20727845435334
Epoch (UTC): 29 November 2022 18:08:53
Eccentricity: 0.0005371
inclination: 98.4270°
perigee height: 819 km
apogee height: 827 km
right ascension of ascending node: 343.9848°
argument of perigee: 191.0659°
revolutions per day: 14.20727845
mean anomaly at epoch: 169.0391°
orbit number at epoch: 43533

The dashed part of the orbit path shows where the satellite is in the earth's shadow,  

DLR